Wind_Speed
50 50 49 49 49 48 47 47 45 44 44 43 42 42 41 40 40 39 38 38 38 37 37 37 37 37 37 36 36 36 35 35 35 34 34 34 34 34 33 33 33 32 32 31 31 30 30 29 29 29 28 28 28 27 27 26 26 24 23 22 21 19 19 20 19 20 21 20 20 21 21 21 19 20 20 19 20 21 17 17 19 18 19 20 19 19 18 18
51 51 51 50 50 50 49 48 47 47 46 45 44 43 43 42 41 40 40 39 39 39 38 38 37 37 36 36 36 35 35 35 34 34 34 34 34 34 33 33 33 32 32 32 31 30 30 29 29 29 28 28 28 28 27 27 26 24 24 23 21 21 20 19 19 20 21 20 20 21 22 22 20 20 21 20 21 22 19 18 19 19 20 20 20 20 19 19
53 53 52 52 51 51 50 50 49 48 48 47 46 45 44 44 43 42 41 41 40 40 39 39 38 38 37 37 36 36 35 35 35 35 35 34 34 34 34 34 33 33 33 32 32 31 30 30 29 29 29 29 29 28 28 27 26 25 24 23 21 21 21 20 19 20 22 21 21 21 22 22 21 20 21 21 21 22 21 20 18 19 21 20 21 21 20 20
54 54 53 53 52 52 52 51 51 50 49 49 48 47 46 45 45 44 43 42 42 41 41 41 40 39 39 38 37 37 37 37 36 36 36 36 35 35 35 35 34 34 34 33 33 32 31 31 30 30 30 30 30 29 28 27 26 25 25 23 22 22 21 21 20 21 22 22 22 22 22 22 22 21 21 22 22 22 23 22 20 19 21 21 21 22 22 22
55 55 55 55 54 54 53 53 52 52 51 51 50 49 48 47 46 46 45 44 44 43 43 42 42 41 40 39 39 39 39 38 38 37 37 37 37 36 36 35 35 34 34 34 33 33 32 32 31 31 30 30 31 30 28 27 27 26 25 23 22 23 22 21 21 22 22 23 23 22 22 23 22 22 21 22 22 23 24 24 22 21 21 22 22 23 23 23
56 57 56 56 56 55 55 54 54 54 53 53 53 52 51 50 49 48 47 46 46 45 44 44 43 42 42 41 41 40 40 40 39 38 38 38 37 37 36 36 35 35 35 34 34 33 33 32 32 32 31 31 31 30 29 28 27 27 26 24 23 24 23 22 22 23 23 24 24 23 23 23 23 23 23 22 22 24 26 26 25 24 23 23 23 24 24 24
58 58 58 58 57 57 57 56 56 55 55 55 54 54 54 52 51 51 50 48 48 47 46 45 44 44 43 43 42 42 41 41 40 39 39 38 38 37 37 36 35 35 35 35 34 34 33 33 32 32 32 32 32 31 30 29 28 28 27 25 25 25 24 23 23 24 24 24 24 24 23 24 24 23 24 24 23 25 27 27 27 26 26 25 25 25 25 25
58 59 59 59 59 58 58 58 57 57 56 56 56 55 55 55 54 53 52 51 50 49 48 47 46 45 45 44 43 43 43 43 41 40 40 39 39 38 37 37 36 35 35 35 35 34 34 33 32 32 32 33 33 32 31 30 30 29 28 26 25 26 26 24 24 24 25 25 25 25 24 25 25 24 25 26 24 27 28 28 28 28 28 28 27 26 26 26
59 59 60 60 60 59 59 59 59 58 58 58 57 56 56 56 55 55 54 53 52 51 50 49 48 47 47 46 45 45 45 45 43 42 42 41 40 40 39 38 37 37 36 36 36 36 35 34 34 33 34 34 33 34 33 32 31 29 28 28 26 26 27 26 25 26 26 26 26 25 25 26 26 25 28 28 26 28 29 29 29 29 29 29 29 28 28 27
59 59 60 61 61 61 61 60 60 60 60 59 59 58 57 57 56 56 55 54 54 53 52 51 50 50 49 48 47 47 48 46 45 45 44 43 42 41 40 39 39 38 38 38 37 37 37 36 35 35 35 35 35 35 35 33 33 30 29 30 28 27 27 27 28 28 28 28 27 26 25 27 27 27 30 30 28 28 30 30 31 30 30 30 30 29 29 29
58 59 60 61 62 62 62 62 61 61 61 60 60 60 59 59 58 57 56 55 55 54 54 54 53 52 51 50 50 49 49 48 46 47 46 44 43 42 42 41 41 40 40 40 39 38 38 37 37 37 37 37 36 37 36 35 34 32 31 31 30 28 28 29 30 30 31 31 29 26 26 28 29 29 31 31 30 30 31 32 32 32 31 31 31 30 30 30
59 59 60 61 62 63 64 63 63 62 62 62 61 61 61 61 60 59 58 57 56 55 55 54 54 53 53 53 52 51 51 50 49 49 48 47 45 44 44 44 44 43 43 42 41 40 39 39 38 38 39 38 39 39 38 37 36 35 33 32 31 29 29 31 32 33 33 32 30 27 28 30 31 31 32 32 32 32 32 33 34 33 33 32 32 31 31 31
61 60 60 61 62 63 64 64 64 64 64 63 62 62 62 62 62 62 61 59 58 57 56 55 54 54 53 53 53 53 52 51 50 51 50 49 47 46 46 46 46 45 44 43 42 41 41 41 40 40 40 40 41 41 40 39 38 36 34 34 32 29 30 33 35 36 34 33 32 29 29 31 33 33 34 34 34 33 33 35 35 34 34 33 32 32 32 32
62 62 61 61 62 63 64 65 66 66 65 65 64 63 63 62 62 62 62 62 61 60 59 57 56 55 53 53 53 52 52 52 51 52 51 49 48 47 48 48 47 46 46 45 44 43 43 43 42 42 43 42 42 43 42 42 41 39 35 33 32 30 32 36 37 38 36 34 33 31 30 32 34 34 35 36 36 34 34 35 35 35 34 33 33 32 33 33
62 63 62 62 62 63 64 65 66 67 67 66 66 65 64 63 63 62 62 62 62 61 61 59 58 57 55 55 55 54 53 52 52 53 52 51 50 50 51 51 50 50 49 48 47 46 46 46 45 45 45 44 44 44 45 44 44 41 35 32 32 32 34 37 39 38 37 36 34 32 31 33 35 35 35 37 37 36 35 35 35 35 34 33 33 33 33 35
64 64 64 63 63 62 64 65 66 67 67 68 68 67 66 65 64 63 62 62 62 61 61 60 60 59 57 57 57 56 55 55 55 54 52 51 52 53 53 52 52 52 51 50 49 49 48 48 47 47 47 46 46 47 47 46 47 43 35 33 34 34 36 38 40 40 39 38 36 33 32 33 34 34 36 37 37 36 36 36 36 35 35 34 33 34 34 35
64 64 64 65 64 64 64 65 66 67 67 68 68 68 67 66 65 64 63 62 62 61 61 60 60 59 58 58 59 59 59 59 57 55 54 54 54 55 54 53 53 53 52 51 51 50 50 49 49 48 48 49 50 50 49 48 48 44 38 37 37 38 39 41 41 41 40 40 38 36 34 34 33 33 36 37 37 36 36 37 37 36 34 34 34 35 35 36
66 65 64 64 65 66 65 65 66 67 67 68 68 69 69 68 67 66 65 64 62 62 60 60 60 59 59 59 61 62 61 60 58 57 57 57 57 57 56 55 55 55 54 53 52 52 51 50 50 49 50 54 55 52 50 50 49 46 42 40 40 41 43 44 44 42 40 40 40 39 36 36 33 32 34 35 35 36 37 37 38 37 35 35 35 35 36 37
67 68 67 65 65 66 67 67 67 67 66 67 68 69 70 70 69 68 66 65 64 63 62 61 61 60 59 59 60 61 61 60 59 59 58 58 58 57 57 57 57 56 56 55 55 53 52 51 50 51 54 57 56 53 51 51 51 49 46 43 43 45 46 48 47 43 41 41 41 41 38 38 36 34 34 34 35 37 37 37 38 39 37 35 35 36 36 38
68 69 70 69 66 65 66 68 68 67 65 66 67 68 69 69 70 69 69 67 66 66 65 63 62 61 58 59 59 59 60 59 59 59 58 58 58 58 58 58 57 57 57 57 56 54 54 52 51 55 58 58 56 54 53 53 52 51 49 47 47 47 48 49 48 46 45 42 41 42 40 39 39 37 35 35 37 38 38 37 39 40 39 37 37 37 38 38
67 69 71 71 70 68 68 68 69 68 66 66 66 66 67 68 69 70 70 70 69 69 66 64 63 61 59 58 59 59 60 59 59 59 58 58 58 58 58 57 58 58 59 58 56 55 55 53 54 59 60 59 56 55 55 54 54 54 52 52 51 50 50 50 49 47 46 44 43 44 42 40 41 40 38 38 39 42 42 40 40 41 40 40 39 39 39 40
66 67 69 71 72 72 71 70 70 69 68 67 67 66 66 67 68 69 71 71 71 70 68 66 64 62 60 60 60 60 59 59 59 59 59 58 58 58 58 58 58 60 60 59 57 57 56 55 58 61 60 59 58 57 56 56 56 56 55 55 53 54 53 52 52 51 48 45 45 46 44 41 43 44 43 42 42 45 46 43 42 43 43 42 42 42 41 42
72 68 67 69 73 75 74 73 71 70 68 68 68 68 68 68 68 69 70 70 71 71 69 67 65 63 62 61 60 60 59 59 60 60 60 59 59 59 58 58 59 60 60 59 59 59 56 57 61 61 60 59 59 59 58 57 57 57 57 56 56 57 56 54 54 53 51 48 47 48 45 43 45 46 47 47 47 48 49 46 45 45 45 46 45 45 44 45
80 75 70 68 71 74 76 76 75 72 71 70 69 69 69 69 69 69 70 70 70 69 69 68 67 64 62 61 61 61 60 60 60 61 61 61 61 61 59 59 60 60 60 61 61 59 56 59 62 60 60 61 60 60 60 60 59 58 58 58 58 59 58 57 56 54 53 51 50 50 46 43 46 48 49 52 52 51 50 49 49 48 48 49 48 48 48 48
84 82 78 74 72 72 74 74 74 76 76 74 73 71 71 70 70 70 71 72 69 67 68 68 66 63 62 62 61 61 62 61 61 62 62 63 63 63 61 62 61 61 62 64 63 58 55 59 61 60 60 62 62 61 61 62 61 60 59 59 60 60 59 58 57 55 54 52 52 52 47 43 46 48 51 55 56 54 52 51 51 50 50 50 50 50 50 50
84 85 85 84 79 76 74 70 71 76 78 78 77 75 74 72 72 73 73 75 71 66 66 67 65 64 62 61 60 63 65 61 61 64 64 64 65 66 65 64 64 63 65 66 64 57 54 58 61 61 61 61 61 62 62 63 63 61 60 61 61 60 59 59 58 58 56 54 53 53 50 45 44 48 53 56 56 55 55 55 54 52 50 51 51 52 52 52
86 85 86 88 87 84 79 73 73 74 74 77 79 78 76 75 76 76 76 78 73 65 65 67 65 63 62 62 63 66 66 60 62 65 64 65 66 68 68 66 65 65 67 69 64 56 54 58 61 61 61 60 60 62 64 65 64 61 61 62 62 61 60 59 60 60 58 56 53 52 53 50 44 48 55 56 55 56 58 59 57 54 53 52 53 54 54 54
91 88 86 87 88 87 85 82 80 76 74 76 77 76 76 77 79 79 80 82 73 63 64 66 66 65 63 64 64 66 65 62 63 65 64 66 67 68 68 67 67 67 69 69 63 58 58 59 60 62 62 60 60 63 65 66 64 62 61 62 63 62 61 61 61 61 60 57 52 51 56 56 47 47 53 54 55 59 61 60 58 56 55 54 54 55 56 56
96 93 90 89 88 88 86 85 83 82 81 81 79 77 76 77 79 80 84 84 72 63 64 66 66 66 66 66 66 67 66 65 65 65 66 68 67 67 67 68 69 69 69 69 64 62 60 59 60 62 63 62 63 64 65 65 65 63 63 64 64 64 63 62 61 61 60 56 51 53 60 60 50 45 49 52 55 59 61 60 58 56 56 56 56 57 57 57
99 96 95 93 91 89 87 84 82 84 87 87 86 84 82 82 80 82 86 82 71 64 65 67 66 65 66 67 69 69 69 68 68 68 69 69 68 68 68 69 70 69 68 67 65 63 62 61 62 62 63 64 65 65 65 66 66 65 65 65 66 65 64 63 61 61 60 54 52 56 61 61 52 44 47 52 56 59 60 59 59 57 57 57 58 59 59 58
99 98 98 96 94 92 90 87 84 84 86 88 89 89 89 88 87 89 87 78 71 69 69 69 68 65 66 68 70 71 72 72 72 72 72 71 70 70 69 70 70 70 68 65 64 64 64 64 63 62 63 64 65 66 66 67 66 65 65 64 64 64 62 62 61 61 60 55 54 58 60 60 52 44 48 54 56 58 59 60 60 59 59 58 59 60 60 59
98 99 99 98 97 96 93 91 89 88 87 87 89 90 92 93 94 93 86 77 75 74 72 72 70 68 69 70 72 72 73 74 75 75 74 74 73 72 71 71 71 71 68 64 64 65 65 64 63 63 62 63 65 66 66 66 65 64 62 61 62 61 60 60 59 61 60 57 57 59 59 56 49 45 51 56 57 57 59 61 61 60 60 59 59 59 60 60
97 99 100 99 99 98 95 95 95 94 91 88 89 92 94 97 97 91 83 79 77 74 72 74 75 74 75 74 73 73 74 74 75 76 76 76 75 73 72 71 71 71 69 66 66 66 64 63 62 62 62 63 64 65 65 65 64 63 61 62 62 61 60 58 59 60 59 58 59 60 58 52 45 45 51 56 58 58 59 61 60 60 60 59 59 60 60 60
96 99 100 101 101 101 100 99 99 98 96 93 93 94 97 99 96 89 83 81 79 75 73 74 77 78 79 77 76 75 75 74 74 75 75 75 74 72 71 71 71 72 71 69 67 66 65 62 61 63 63 63 63 63 64 64 64 62 62 63 62 61 62 61 60 60 58 57 58 58 56 50 46 47 51 54 58 58 58 58 59 59 59 59 59 60 60 60
97 99 100 102 103 103 103 102 101 100 100 98 98 100 101 98 93 88 85 83 82 81 78 78 79 79 80 80 78 76 75 74 73 74 74 74 73 71 71 71 71 71 72 71 69 67 66 62 61 65 65 64 63 63 64 64 63 62 61 61 60 62 65 64 62 60 59 57 55 54 51 48 48 49 50 53 57 58 58 57 58 58 58 59 60 59 59 59
97 99 101 103 103 103 104 103 103 102 102 102 104 105 102 97 92 89 87 85 86 86 83 83 83 81 80 81 80 78 76 75 75 75 74 74 73 72 71 71 72 72 72 73 72 70 67 62 61 63 63 62 63 63 64 64 64 62 61 60 62 65 66 65 63 61 61 59 54 51 48 47 47 47 49 54 57 58 59 57 57 57 58 59 59 59 59 60
95 99 102 102 102 103 104 104 103 103 104 105 107 106 102 97 95 93 90 88 89 90 88 86 85 84 83 83 82 81 80 79 78 78 76 75 73 72 72 73 74 74 73 75 76 74 70 66 63 63 62 62 64 65 65 65 64 64 62 62 65 66 65 66 66 63 62 61 55 51 49 47 46 45 50 57 59 59 60 59 58 58 59 59 58 59 59 60
96 98 101 101 101 102 103 104 103 102 104 106 107 107 104 100 98 96 94 92 92 93 92 88 87 86 85 85 85 84 84 82 80 78 78 77 75 72 72 73 74 75 76 78 79 76 74 71 66 64 64 65 67 67 66 65 66 67 66 66 67 67 65 66 67 64 64 63 58 54 52 48 48 49 54 58 59 59 60 61 60 60 60 60 59 59 60 60
99 100 99 98 99 100 100 102 103 103 105 107 107 105 103 101 100 99 97 94 94 95 94 91 90 90 88 88 87 87 87 86 83 81 79 78 76 74 74 74 75 75 77 79 79 77 77 75 69 65 65 67 67 66 65 66 69 70 69 68 67 67 65 65 66 64 65 65 62 59 56 52 52 56 57 57 58 59 60 61 63 62 62 62 61 61 61 62
103 103 100 98 99 99 98 100 102 105 107 107 105 104 103 102 101 100 99 97 96 96 94 92 92 93 91 90 90 89 89 88 86 84 81 77 75 74 74 76 76 76 78 80 81 80 80 78 74 70 70 69 66 66 67 69 71 71 70 69 68 68 68 67 67 66 67 67 65 64 60 55 56 59 59 59 61 61 62 64 65 65 65 64 64 63 64 64
107 106 102 101 103 102 100 101 103 105 107 105 101 99 100 102 103 102 102 101 100 98 95 93 93 93 92 91 92 92 92 91 89 86 82 77 74 75 76 77 78 79 81 82 82 82 82 82 80 77 74 71 70 70 71 71 72 72 72 71 71 72 73 74 72 70 71 70 68 67 60 53 56 59 60 62 63 64 65 66 67 69 68 67 67 67 67 67
110 108 104 104 106 106 104 105 105 105 105 102 97 94 94 96 100 103 104 104 103 101 99 97 94 93 92 91 92 93 94 94 92 90 86 82 80 80 80 80 80 81 82 83 83 83 85 86 84 80 76 75 75 75 74 74 74 74 73 73 74 75 76 77 75 74 74 71 68 68 60 52 55 60 60 62 64 65 67 69 71 73 72 71 70 70 70 69
113 110 106 106 107 107 108 109 109 109 108 104 99 96 94 93 95 99 102 104 105 105 103 100 97 94 92 91 92 93 94 94 94 92 90 87 86 85 84 83 83 84 84 84 84 85 86 87 86 82 79 77 77 76 75 75 75 75 74 75 75 75 75 77 76 75 74 69 67 68 59 51 56 62 63 64 65 67 69 70 73 74 74 74 73 73 73 71
113 112 110 109 109 110 111 112 111 111 110 105 101 99 96 94 93 94 96 98 100 101 101 101 100 97 95 94 94 95 95 94 93 91 90 89 87 86 87 87 86 86 86 86 87 88 88 89 88 86 83 79 76 75 74 75 77 78 77 77 76 75 76 76 75 74 71 64 65 67 60 56 62 66 67 68 69 70 71 71 73 74 75 74 74 74 73 72
115 114 113 112 111 113 114 113 113 112 111 107 104 102 100 97 95 94 95 96 97 97 97 98 98 98 98 98 98 98 97 95 93 92 90 89 87 86 87 87 87 88 88 88 88 89 90 91 90 88 85 80 77 76 76 78 80 80 78 77 77 78 79 78 76 75 70 64 66 67 63 64 69 69 69 70 71 72 73 73 73 74 74 74 74 74 73 73
118 117 115 113 113 116 117 115 115 114 113 111 108 105 104 101 98 97 98 98 98 97 97 96 97 97 97 98 99 99 98 97 96 94 91 89 88 88 88 88 88 89 89 89 89 90 91 92 91 89 86 82 79 80 81 81 81 79 78 79 80 80 81 82 81 77 72 71 71 69 68 70 72 72 72 71 71 71 70 70 71 73 74 74 75 75 75 75
119 119 117 115 115 118 119 117 116 115 114 113 111 107 105 104 102 101 101 100 99 99 99 99 99 98 97 97 97 97 96 97 97 95 92 90 90 90 90 89 88 89 90 90 90 91 91 91 91 89 87 84 83 84 84 83 80 80 80 80 79 80 81 83 82 77 76 79 75 70 71 73 72 71 70 68 68 68 68 69 71 73 74 76 76 77 77 76
122 120 118 118 118 120 121 119 116 115 114 113 112 110 108 108 107 106 103 101 101 103 103 103 101 99 98 98 97 96 96 96 96 94 92 92 92 92 93 92 90 90 90 90 90 90 91 90 89 89 87 85 84 85 85 85 82 81 81 80 79 80 80 82 80 77 80 81 75 71 74 73 70 69 69 68 70 71 71 72 73 73 75 76 77 77 77 76
128 125 122 122 121 121 122 122 119 118 116 115 114 113 111 110 109 108 106 106 106 106 106 104 102 100 101 101 100 98 96 95 93 92 93 94 94 94 95 94 92 92 91 90 89 88 88 86 84 85 84 82 82 83 83 84 83 81 80 80 79 79 79 80 79 78 80 80 75 75 76 73 71 72 71 72 73 72 73 76 76 77 77 77 78 78 78 78
131 128 125 124 124 123 123 124 123 121 119 118 117 115 113 111 109 109 110 110 109 107 107 106 104 103 104 105 105 102 98 95 93 93 95 96 95 94 94 93 93 93 92 91 89 87 85 82 82 83 82 80 80 82 84 84 83 81 79 78 77 77 79 79 77 76 79 79 76 77 78 74 72 72 72 73 74 74 77 78 79 79 78 78 79 80 79 79
132 130 127 125 124 124 124 124 125 123 121 119 118 116 114 112 110 110 112 113 111 108 107 106 105 107 109 110 109 105 100 98 97 97 98 98 96 94 92 91 91 92 92 92 91 89 87 84 83 84 84 81 80 83 86 86 86 84 79 73 73 77 79 78 76 77 79 79 78 80 79 75 73 75 75 76 77 78 79 79 80 81 81 82 82 81 80 79
136 133 130 127 125 123 123 124 125 124 122 120 118 116 115 113 111 112 114 114 112 110 108 107 106 109 112 112 110 106 103 103 103 101 100 99 98 96 94 92 91 92 92 92 93 93 91 89 87 87 87 84 81 83 85 88 91 88 76 69 72 78 78 77 77 76 77 78 80 81 78 75 75 76 76 76 78 79 80 81 82 83 84 85 84 83 82 82
Wind_Direction
224 223 223 223 224 224 224 225 226 225 224 224 224 225 225 226 226 227 228 229 230 231 231 232 233 234 235 236 237 238 240 241 242 244 246 247 249 251 252 254 255 257 258 259 260 261 262 262 263 264 265 266 267 268 270 271 273 274 275 275 276 275 272 270 270 269 269 268 269 269 269 269 269 271 270 271 270 271 271 269 272 275 275 279 282 282 283 283
225 224 224 224 224 225 225 226 227 227 227 226 226 226 226 227 227 228 229 230 231 232 233 234 235 236 236 237 238 240 241 243 244 245 247 248 250 251 253 254 256 258 259 260 261 262 262 263 264 265 266 267 268 269 271 273 274 275 276 276 277 275 271 269 268 267 266 265 266 267 268 270 269 269 271 270 269 271 269 265 268 271 272 275 278 279 280 280
226 226 226 225 225 226 226 227 227 228 229 229 229 228 228 228 229 229 230 231 232 233 234 235 236 237 238 239 240 241 242 243 245 246 247 249 251 252 253 255 256 258 259 260 260 261 262 263 264 265 267 268 269 270 272 273 274 275 275 275 276 275 272 269 268 268 267 265 265 265 267 269 270 269 270 270 268 270 270 266 266 268 270 273 275 277 277 276
228 227 227 227 226 226 227 227 228 229 230 231 231 231 231 231 231 231 231 232 233 234 234 235 236 238 239 240 241 242 243 243 245 246 247 249 251 252 253 255 256 257 258 259 260 261 262 263 264 265 267 268 269 270 272 273 274 274 274 275 274 273 272 270 268 268 269 268 266 266 267 268 269 268 268 269 269 270 270 270 268 267 270 273 274 276 276 275
228 229 228 228 227 227 227 228 228 229 230 231 232 232 233 233 233 232 233 233 234 235 236 237 237 239 240 241 242 243 243 244 245 246 248 249 250 252 253 254 256 257 259 259 261 261 262 263 264 265 267 268 269 270 272 272 273 274 273 274 274 272 271 271 269 268 268 268 267 267 267 268 268 268 267 267 269 270 270 272 272 269 269 271 273 274 275 276
229 230 230 229 229 229 228 228 229 229 230 231 232 233 233 234 234 234 234 234 235 236 237 238 238 239 240 241 243 244 245 245 246 247 248 249 250 251 253 254 256 257 259 260 261 262 263 264 265 266 268 269 269 271 271 272 272 273 273 273 274 272 271 270 270 269 268 268 268 267 267 268 268 268 268 267 268 270 271 273 274 273 270 269 271 273 274 275
229 230 231 231 231 231 230 230 230 230 230 231 232 233 234 234 235 235 235 236 236 237 238 239 240 240 241 242 243 245 246 246 247 247 248 250 251 252 253 254 256 257 259 260 262 263 264 265 266 267 269 269 270 271 272 272 272 272 273 273 273 273 272 271 271 270 269 268 268 268 268 268 268 268 268 267 267 269 271 274 275 275 274 272 271 272 272 272
230 230 231 232 232 232 232 232 232 231 232 232 233 234 235 236 236 236 237 237 237 238 239 240 241 241 242 243 245 246 247 248 248 249 250 251 252 253 254 255 257 258 260 261 262 264 264 266 267 268 269 270 271 272 272 273 272 273 274 273 272 273 273 272 271 271 270 269 268 268 269 269 268 269 267 267 267 268 271 273 274 275 276 276 275 274 273 271
231 231 232 232 233 233 234 234 234 233 233 233 234 235 236 237 238 238 238 238 239 239 240 241 241 242 243 244 246 247 248 249 250 250 251 252 253 254 256 257 259 260 261 262 263 264 266 267 268 269 270 271 272 272 272 272 273 273 274 272 271 272 273 273 272 270 270 269 268 270 270 270 270 269 267 267 266 268 271 272 273 274 276 277 278 277 276 275
233 232 232 233 233 234 234 235 235 235 235 235 235 235 236 237 238 239 240 240 241 241 241 241 242 243 244 245 246 247 249 250 251 252 253 253 255 256 258 259 260 261 262 262 263 265 267 268 269 269 270 270 271 271 272 272 273 272 272 272 271 271 272 273 272 270 269 268 267 270 270 271 270 268 268 269 268 268 270 271 271 273 274 276 277 278 278 277
235 234 234 234 234 234 235 235 236 237 237 236 236 236 236 237 238 239 240 241 242 243 243 243 244 244 245 246 246 248 250 251 252 253 254 255 255 257 259 260 261 262 262 263 264 265 266 267 268 269 270 270 270 270 271 272 272 271 270 270 270 271 272 272 272 270 269 268 268 269 270 269 269 267 268 270 271 270 270 271 272 273 274 275 276 277 277 277
235 235 235 235 235 235 235 236 236 237 238 238 238 238 238 238 238 239 240 241 242 243 244 245 246 246 246 247 247 248 250 251 253 254 255 256 256 258 259 260 261 262 263 264 264 265 265 266 267 268 269 270 270 270 271 271 270 270 269 269 269 271 272 271 270 269 268 270 271 270 269 268 268 268 268 269 269 270 271 271 273 274 275 276 276 276 276 276
235 236 236 236 236 236 236 236 237 237 238 239 239 240 240 240 239 240 240 241 242 243 244 245 246 247 248 249 250 250 252 252 253 255 257 258 258 259 260 260 261 261 262 263 264 265 266 266 266 267 268 269 270 270 270 270 270 269 268 269 270 271 271 270 268 268 268 270 271 270 269 269 269 269 269 270 269 269 270 271 273 274 275 276 276 276 276 275
235 236 236 236 237 237 237 237 238 238 238 239 239 240 241 241 241 241 241 242 242 243 244 244 245 246 248 250 251 252 253 254 254 255 256 258 259 260 260 261 261 261 261 262 263 264 265 266 266 266 267 267 269 270 270 269 269 268 267 269 272 271 269 268 268 269 269 269 269 269 269 270 270 269 270 271 271 271 271 272 273 274 274 274 274 274 274 274
234 235 236 236 237 237 238 239 239 239 239 239 239 240 241 242 242 243 243 243 243 243 244 245 245 246 247 248 250 251 252 254 254 255 256 258 259 259 260 261 262 262 262 263 263 263 264 265 266 266 267 267 267 268 268 269 268 267 267 269 271 269 268 268 269 270 271 270 269 269 268 268 269 270 271 271 272 273 273 273 274 275 275 275 274 273 272 272
233 234 235 236 236 237 238 239 240 240 240 240 240 240 241 241 242 243 243 244 244 245 245 245 246 246 247 248 249 250 251 251 252 254 256 258 259 259 260 261 262 262 263 263 263 264 264 264 265 266 267 267 267 266 267 268 268 268 268 268 267 267 267 268 269 270 271 271 271 270 268 266 268 271 271 272 273 274 275 275 275 275 275 276 275 274 273 273
231 232 234 235 236 237 238 239 240 241 241 241 241 241 241 242 242 242 243 244 245 245 245 246 246 247 247 248 249 250 250 250 251 252 254 256 257 259 260 261 262 262 263 263 264 264 264 265 266 266 267 267 266 264 266 267 269 270 270 268 267 266 265 265 266 268 271 272 272 270 268 266 267 268 270 272 274 275 275 275 275 275 275 275 274 274 274 274
231 231 232 234 235 236 237 239 240 241 241 242 242 242 242 242 242 242 243 243 244 245 246 246 247 247 247 248 249 250 250 251 252 253 253 254 256 258 260 261 262 263 264 264 264 264 265 266 267 267 267 266 264 265 267 268 269 270 269 268 268 268 266 265 264 265 268 271 272 271 270 269 266 265 268 272 274 275 274 275 275 275 274 274 274 275 275 274
231 231 231 232 233 234 235 237 239 240 241 242 242 242 242 242 242 242 243 243 244 245 245 245 245 245 246 247 249 251 252 253 253 253 254 255 256 257 259 260 261 262 264 264 264 265 266 267 268 268 266 265 265 267 269 269 270 270 269 267 266 266 267 267 267 267 266 266 269 271 271 272 270 268 268 269 270 271 273 274 275 274 273 273 273 274 275 275
231 231 231 231 232 233 233 235 237 239 240 241 242 242 243 243 243 242 242 243 243 243 243 244 245 245 245 247 249 250 252 253 253 253 254 255 255 256 257 259 261 262 262 263 264 265 266 266 267 266 265 266 267 268 269 270 270 269 269 268 266 265 265 267 268 269 268 267 268 270 270 272 273 272 271 270 270 270 270 271 272 273 274 273 272 273 273 274
231 231 231 231 232 233 233 234 235 237 239 240 241 242 243 243 243 243 242 242 242 243 244 244 245 246 246 247 248 249 251 253 253 253 254 254 255 256 257 258 259 260 261 262 263 264 264 265 265 264 265 267 268 269 269 269 269 269 269 268 267 267 266 266 266 266 267 268 269 270 270 272 273 273 272 271 272 271 270 270 270 271 272 272 272 272 272 273
228 231 234 233 233 233 234 234 235 236 238 239 240 241 242 243 243 243 243 243 242 243 243 243 244 246 246 246 248 250 251 253 254 255 254 254 255 255 256 256 257 258 259 260 261 261 262 263 263 264 266 267 268 268 269 269 270 270 269 268 268 268 267 266 266 265 266 266 268 270 271 273 274 274 273 272 271 270 271 271 272 272 273 272 272 271 271 272
225 228 232 234 234 233 232 233 234 235 237 239 240 240 241 242 242 243 243 243 243 243 243 244 244 245 246 247 248 250 251 253 254 256 257 256 256 255 255 255 255 256 257 259 259 259 260 261 262 264 266 267 267 268 268 267 268 268 269 269 269 268 267 267 267 268 268 268 268 269 270 273 274 275 275 274 271 270 271 272 272 272 272 272 272 272 272 272
228 227 228 231 233 234 234 233 234 235 236 237 238 239 240 241 241 242 243 243 243 243 244 244 243 244 246 247 248 249 251 252 254 256 257 257 257 256 255 255 255 256 257 257 256 256 258 260 261 263 265 266 266 267 267 267 267 267 268 269 269 269 269 269 268 269 270 270 270 269 269 271 274 274 275 274 272 271 272 273 273 272 272 272 272 273 273 272
232 230 229 228 229 231 233 234 235 235 236 236 237 238 239 240 241 241 242 242 241 242 244 244 244 244 245 247 248 250 250 251 253 254 255 256 257 257 256 255 255 255 255 255 255 255 257 259 261 262 264 265 266 266 267 268 267 267 267 268 268 269 270 271 271 271 271 271 271 270 269 270 273 275 275 274 273 273 273 272 271 272 273 273 273 273 273 273
232 233 233 232 230 229 230 232 234 236 236 237 237 238 239 240 241 241 241 241 239 240 244 244 243 243 244 246 247 249 248 248 251 253 253 255 256 256 255 255 255 255 255 256 255 255 257 260 261 261 261 263 266 267 267 267 267 268 268 268 268 269 270 271 272 272 271 271 271 273 273 270 271 274 273 273 276 278 277 274 272 272 273 274 275 275 275 274
232 233 235 236 235 233 231 230 232 234 236 237 237 238 239 240 241 241 242 242 238 237 243 245 244 243 244 245 245 247 248 248 250 251 252 253 254 255 255 255 255 256 256 256 256 256 256 257 260 261 261 262 264 266 266 267 267 269 270 271 271 272 272 271 271 271 271 270 271 274 275 271 269 272 273 274 277 278 276 275 276 276 276 275 275 275 275 275
232 233 235 237 238 237 235 233 233 234 235 237 238 239 240 240 241 241 242 242 238 237 242 245 245 244 243 244 245 246 247 247 248 250 251 252 252 254 255 255 255 255 256 257 257 256 254 256 259 261 262 262 263 264 266 268 269 271 272 273 273 273 273 272 271 272 272 272 274 275 273 269 266 268 273 277 278 277 276 276 277 278 277 277 275 274 273 273
233 233 234 236 238 238 238 237 236 236 237 238 239 239 239 240 241 242 243 242 239 237 240 243 246 246 245 244 244 246 246 246 247 249 250 251 251 252 254 255 255 254 255 258 258 257 256 257 258 260 262 263 264 264 267 269 271 273 273 273 273 273 273 273 274 275 275 276 277 274 271 269 267 268 272 275 275 276 277 278 279 278 278 277 276 275 274 273
235 234 234 236 237 239 239 239 239 239 240 240 241 240 240 240 241 242 242 242 240 238 237 240 244 245 246 245 244 245 245 245 245 245 247 249 250 252 252 254 255 256 256 258 259 259 258 258 258 260 262 264 265 267 269 270 271 272 272 272 273 274 275 276 277 277 277 278 277 273 271 271 271 271 271 271 272 273 275 276 277 277 277 276 276 276 276 275
236 236 236 236 238 239 239 240 240 241 242 242 242 242 242 242 241 242 242 242 242 240 236 237 240 243 245 246 245 244 244 244 245 245 245 247 248 250 252 254 256 257 257 258 260 260 260 259 259 260 262 264 266 268 269 270 272 273 273 275 276 277 277 278 278 277 277 277 274 272 272 273 275 276 272 269 270 272 274 274 275 275 275 275 276 276 276 276
236 237 237 237 238 239 240 240 240 241 242 243 243 243 243 242 241 242 243 243 243 242 239 238 239 241 243 245 245 245 244 244 245 246 246 246 247 249 251 254 256 258 259 260 260 260 260 261 261 261 262 264 265 266 269 271 274 275 277 278 279 278 278 278 278 277 276 275 273 272 273 276 279 278 273 270 269 269 272 273 274 275 275 276 276 277 277 277
236 237 238 238 238 239 240 240 241 241 241 242 243 243 243 243 243 243 243 243 243 242 242 241 240 240 241 243 244 245 246 245 245 246 247 247 247 248 250 253 256 258 260 259 259 260 261 262 263 264 263 262 264 266 270 273 275 277 279 280 279 280 281 279 277 275 274 274 273 274 275 278 279 275 272 272 272 271 271 272 273 275 275 276 276 277 277 277
235 236 237 238 238 239 239 240 241 242 242 241 242 242 243 244 245 245 243 243 243 242 241 242 242 241 241 243 244 246 246 247 248 248 249 249 250 250 251 252 254 256 258 259 260 261 261 262 263 264 263 263 265 267 270 273 275 277 278 278 281 283 282 279 277 277 276 275 274 276 278 281 279 274 273 275 275 274 273 272 273 274 275 276 276 276 277 278
236 236 236 237 238 238 239 240 241 242 243 243 243 243 243 244 245 246 245 244 243 242 241 240 241 240 240 241 243 245 247 248 249 250 250 251 251 252 252 253 254 256 258 260 260 260 260 260 261 262 264 265 267 268 270 272 274 275 276 278 281 280 278 278 279 280 279 276 276 278 280 282 279 278 278 277 275 274 274 273 274 275 276 276 277 277 278 278
239 237 237 237 238 239 240 241 242 243 243 244 244 244 244 245 246 246 246 246 245 243 241 240 240 240 240 240 240 242 245 246 247 249 250 251 252 253 254 255 256 257 259 260 260 260 260 260 260 262 264 265 266 267 269 271 273 275 277 278 277 274 275 278 279 279 279 278 279 280 280 281 281 281 280 276 273 274 275 276 277 278 278 278 279 279 278 277
240 240 239 238 238 239 240 242 243 244 245 244 244 244 244 245 246 245 245 245 246 245 243 241 241 241 241 241 241 241 242 244 246 247 249 251 253 255 256 256 257 258 259 260 260 260 261 261 261 262 263 264 265 266 268 270 273 275 275 274 272 272 274 276 277 278 278 279 279 279 279 280 280 278 275 272 273 275 278 279 280 280 280 280 280 279 278 277
240 240 240 240 239 239 240 242 243 245 245 245 245 244 244 245 246 246 246 245 246 247 246 244 243 243 242 242 242 242 242 243 244 246 248 250 252 254 255 257 258 259 260 260 261 262 262 262 261 261 263 264 264 266 268 271 272 271 270 270 272 274 275 276 277 277 277 277 276 276 276 277 277 273 270 272 276 278 280 282 281 280 280 279 279 278 277 276
238 239 240 241 241 241 241 242 243 244 245 245 245 245 245 245 247 247 248 248 247 248 248 247 246 245 243 243 242 242 243 243 244 245 247 249 251 253 254 257 258 259 260 261 262 263 263 262 262 262 263 263 265 267 268 269 268 268 270 272 274 275 275 274 276 277 277 277 276 274 272 272 273 272 273 276 278 280 281 280 280 279 279 279 279 279 278 277
236 239 239 240 240 240 240 241 242 243 244 245 245 246 246 246 247 248 249 249 249 250 250 249 248 247 246 245 244 244 244 244 245 245 247 248 250 252 254 256 257 258 259 260 261 262 263 264 263 262 262 263 265 266 267 267 268 269 271 272 272 272 273 273 275 277 277 277 275 273 272 273 273 274 276 277 277 278 279 278 279 279 279 279 279 279 279 279
235 238 238 239 239 240 240 240 241 242 243 244 245 246 247 248 249 249 250 250 251 251 251 251 250 250 250 249 248 247 246 245 244 245 245 246 248 250 252 253 255 257 259 260 262 263 264 264 263 263 263 264 264 265 265 267 268 269 269 269 271 272 273 274 275 274 274 274 274 275 276 277 276 276 276 276 276 277 277 278 278 277 278 278 279 279 279 279
236 237 238 238 240 241 241 241 242 242 243 244 245 246 248 249 250 250 250 251 252 252 251 251 251 252 253 252 252 251 250 248 247 245 244 244 245 247 249 251 254 256 259 261 262 263 264 264 264 265 264 264 264 264 265 267 268 269 270 270 270 270 271 272 272 272 272 274 277 277 278 278 277 276 276 275 276 276 277 277 277 278 279 279 278 278 278 279
236 237 237 238 239 242 243 243 243 243 244 245 245 246 247 248 249 250 250 251 252 253 252 252 252 252 253 254 254 254 253 252 250 248 247 245 244 245 248 250 252 255 257 260 262 263 264 265 266 265 265 264 265 266 267 268 269 269 268 267 266 268 270 271 273 273 273 275 275 276 277 277 275 275 275 275 276 277 277 278 278 279 280 279 279 279 278 278
235 236 236 236 238 240 242 243 244 245 246 247 247 248 249 249 249 249 250 251 253 254 254 254 253 253 253 254 255 255 256 255 254 253 251 249 247 246 247 249 251 253 256 258 260 261 263 264 265 265 264 265 266 267 268 267 266 265 265 265 267 269 270 271 272 272 272 273 273 274 276 276 274 274 276 278 278 278 277 277 277 278 278 279 280 279 279 279
234 234 235 235 236 238 239 241 244 245 247 248 248 248 250 250 250 250 250 251 252 253 254 254 254 254 254 255 255 256 256 257 257 257 255 254 252 250 249 249 250 253 255 256 258 259 261 262 263 264 264 265 266 266 266 265 264 265 266 267 267 267 268 269 270 271 272 272 272 273 275 275 275 276 278 279 279 279 278 277 276 276 277 277 277 277 277 278
232 233 234 235 236 238 238 239 241 243 245 246 247 247 249 250 252 252 251 251 252 253 254 255 255 255 255 256 257 257 257 257 258 258 258 257 257 255 254 252 251 253 255 257 258 259 260 261 262 263 264 265 265 265 264 264 266 267 267 267 266 267 268 269 269 272 273 271 270 273 275 275 276 278 278 279 280 279 278 277 276 275 274 273 273 273 274 275
232 232 233 234 235 237 239 239 240 241 244 246 247 248 248 250 252 252 252 252 253 254 255 256 256 256 256 256 257 258 258 258 257 258 259 259 259 258 257 255 254 254 255 257 259 259 260 260 261 262 263 263 265 265 266 266 267 268 268 268 268 268 268 269 271 272 272 271 272 274 274 275 277 278 278 278 277 276 275 275 274 274 273 273 272 272 272 273
232 232 233 233 234 237 239 240 241 242 243 245 247 248 248 249 251 252 252 253 253 254 255 256 258 259 259 259 258 257 257 257 257 258 259 259 259 259 258 257 256 255 256 257 259 260 260 260 261 262 262 262 263 265 267 267 268 269 269 268 268 268 269 270 271 271 271 272 274 274 273 275 276 275 275 275 274 275 274 274 274 274 273 273 273 273 273 273
232 233 233 233 234 236 239 241 242 242 242 243 245 246 247 248 250 251 251 251 252 254 256 258 259 260 260 260 260 258 257 256 256 257 258 257 257 256 256 256 256 256 257 257 258 258 259 259 260 261 260 261 262 264 267 268 269 269 269 268 267 268 268 269 270 271 271 272 273 273 273 274 274 274 274 274 274 274 274 273 273 274 274 274 274 273 273 273
232 232 233 234 235 236 238 240 241 241 242 243 243 244 246 246 248 249 250 251 252 253 255 257 258 259 260 260 260 259 258 258 257 257 256 256 255 255 255 255 255 255 256 256 256 256 257 257 258 259 260 260 263 265 266 267 268 268 268 268 268 268 268 269 270 270 271 271 272 272 272 273 274 273 272 272 272 273 273 274 275 275 275 275 274 274 274 274
231 232 232 233 234 235 236 237 240 240 241 242 243 244 245 245 246 247 249 250 251 252 253 254 256 257 258 258 259 260 260 260 259 258 257 256 256 255 254 254 254 254 255 255 255 256 257 257 257 259 260 262 264 266 266 267 267 266 267 270 270 269 268 269 269 269 270 272 272 272 273 274 273 272 271 272 272 273 274 275 276 276 275 275 275 276 277 277
231 231 232 232 232 234 235 236 238 239 240 241 242 243 244 244 244 245 246 248 250 251 252 253 253 255 257 259 260 261 261 261 260 259 258 257 257 257 256 255 255 255 255 256 256 256 257 257 258 259 261 262 263 266 267 268 266 266 267 269 269 268 268 269 269 270 271 272 272 273 274 274 272 272 273 273 273 274 275 275 276 276 277 277 278 278 279 280
Height
10750 10753 10756 10758 10760 10763 10766 10768 10770 10772 10774 10776 10778 10779 10781 10783 10785 10787 10788 10790 10791 10792 10794 10795 10797 10798 10800 10801 10802 10804 10805 10806 10807 10809 10809 10810 10811 10812 10813 10814 10814 10815 10816 10816 10817 10817 10818 10818 10819 10819 10819 10819 10819 10819 10820 10820 10821 10821 10821 10822 10823 10823 10823 10823 10823 10822 10821 10822 10821 10820 10819 10820 10821 10820 10820 10821 10819 10819 10821 10821 10820 10820 10819 10819 10819 10818 10818 10817
10745 10748 10750 10753 10756 10759 10761 10764 10766 10768 10770 10772 10774 10775 10777 10779 10781 10783 10785 10786 10788 10789 10791 10792 10793 10795 10797 10798 10800 10801 10802 10804 10805 10806 10807 10808 10808 10809 10810 10811 10811 10812 10813 10814 10814 10815 10815 10816 10816 10816 10816 10816 10817 10817 10817 10818 10818 10819 10819 10820 10821 10820 10821 10821 10821 10820 10819 10820 10819 10819 10818 10817 10819 10818 10818 10818 10817 10817 10819 10819 10819 10819 10818 10817 10817 10816 10816 10816
10740 10743 10746 10748 10751 10754 10757 10759 10762 10764 10766 10768 10770 10772 10773 10775 10777 10779 10781 10783 10784 10786 10787 10789 10790 10792 10794 10795 10797 10798 10799 10801 10802 10803 10804 10805 10805 10806 10807 10808 10809 10809 10810 10811 10811 10812 10813 10813 10814 10814 10814 10814 10814 10814 10815 10816 10816 10816 10816 10817 10818 10818 10818 10819 10819 10818 10817 10817 10817 10817 10816 10815 10816 10816 10816 10815 10815 10815 10815 10817 10818 10817 10816 10816 10815 10815 10814 10814
10736 10739 10741 10744 10746 10749 10752 10755 10757 10760 10762 10764 10766 10768 10769 10771 10773 10775 10777 10779 10780 10782 10783 10785 10787 10788 10790 10792 10794 10795 10796 10798 10798 10800 10801 10802 10803 10803 10804 10805 10806 10807 10807 10808 10808 10809 10810 10811 10811 10811 10811 10811 10811 10812 10812 10813 10813 10814 10814 10815 10816 10815 10816 10816 10816 10816 10815 10815 10815 10815 10814 10814 10814 10814 10814 10813 10813 10813 10812 10813 10815 10815 10814 10813 10813 10813 10812 10812
10732 10734 10737 10739 10742 10744 10747 10750 10753 10755 10758 10760 10762 10764 10765 10767 10769 10771 10773 10775 10776 10778 10780 10781 10783 10785 10787 10789 10791 10792 10793 10794 10795 10797 10798 10799 10800 10800 10801 10802 10803 10804 10804 10805 10805 10806 10807 10808 10808 10808 10808 10808 10808 10809 10810 10810 10810 10810 10811 10812 10813 10813 10813 10814 10814 10813 10813 10812 10812 10813 10812 10812 10812 10812 10812 10811 10811 10811 10810 10810 10812 10813 10812 10811 10811 10810 10810 10809
10727 10730 10732 10735 10737 10740 10742 10745 10747 10750 10753 10755 10757 10759 10761 10763 10765 10767 10769 10771 10772 10774 10776 10777 10779 10781 10783 10785 10787 10788 10789 10791 10792 10794 10795 10795 10796 10797 10798 10799 10800 10801 10801 10802 10802 10803 10804 10804 10805 10805 10805 10805 10805 10806 10807 10807 10808 10807 10808 10810 10810 10809 10810 10811 10811 10811 10811 10810 10810 10810 10810 10810 10809 10809 10809 10809 10809 10808 10807 10807 10808 10809 10810 10810 10809 10808 10808 10807
10723 10725 10727 10730 10733 10735 10738 10740 10742 10745 10747 10750 10752 10754 10756 10758 10760 10762 10764 10766 10768 10770 10772 10774 10776 10778 10780 10782 10784 10785 10786 10786 10788 10790 10791 10792 10793 10794 10795 10796 10797 10798 10798 10799 10799 10800 10801 10801 10802 10802 10802 10802 10802 10803 10804 10804 10804 10804 10805 10807 10807 10806 10807 10808 10808 10808 10808 10808 10807 10808 10808 10807 10807 10807 10807 10807 10807 10805 10804 10805 10805 10805 10806 10807 10807 10807 10806 10805
10718 10721 10723 10725 10728 10730 10733 10735 10738 10740 10743 10745 10747 10749 10752 10754 10756 10758 10760 10762 10764 10766 10768 10770 10772 10774 10776 10778 10780 10782 10782 10782 10785 10786 10787 10789 10790 10791 10792 10793 10794 10794 10795 10795 10796 10797 10797 10798 10799 10799 10799 10799 10799 10800 10801 10801 10801 10801 10802 10804 10804 10803 10804 10805 10806 10805 10805 10805 10805 10805 10806 10805 10804 10805 10804 10804 10805 10803 10802 10802 10802 10802 10802 10802 10803 10804 10804 10803
10713 10716 10718 10721 10723 10726 10728 10730 10733 10735 10738 10740 10742 10745 10747 10749 10751 10753 10756 10758 10760 10763 10765 10767 10769 10770 10773 10774 10776 10778 10777 10779 10782 10783 10784 10785 10786 10787 10788 10789 10790 10791 10792 10792 10792 10793 10794 10795 10795 10796 10796 10796 10796 10796 10797 10798 10798 10799 10799 10799 10801 10801 10801 10802 10803 10802 10802 10802 10802 10803 10803 10802 10802 10802 10800 10801 10802 10801 10800 10800 10799 10799 10799 10799 10799 10799 10800 10800
10709 10711 10713 10716 10719 10721 10723 10725 10728 10730 10732 10735 10737 10739 10742 10744 10746 10748 10751 10754 10756 10758 10760 10763 10765 10767 10769 10771 10772 10773 10773 10776 10778 10779 10780 10781 10782 10784 10785 10786 10787 10787 10788 10788 10789 10789 10790 10791 10792 10792 10792 10792 10793 10793 10794 10795 10795 10796 10796 10796 10797 10798 10798 10799 10799 10799 10799 10799 10799 10801 10801 10799 10799 10799 10796 10797 10799 10798 10797 10797 10796 10797 10796 10796 10796 10796 10796 10795
10704 10706 10708 10711 10713 10716 10718 10720 10722 10724 10727 10729 10731 10734 10736 10739 10741 10743 10746 10748 10751 10753 10756 10758 10760 10763 10765 10766 10768 10769 10770 10772 10774 10774 10776 10777 10779 10780 10781 10782 10783 10784 10784 10784 10786 10786 10787 10788 10788 10789 10788 10789 10790 10789 10790 10791 10791 10792 10793 10793 10794 10795 10796 10795 10795 10795 10795 10795 10797 10799 10798 10796 10795 10795 10794 10794 10795 10795 10795 10793 10793 10793 10793 10793 10793 10793 10792 10792
10698 10700 10703 10706 10708 10710 10712 10715 10717 10719 10721 10724 10726 10728 10731 10733 10736 10738 10740 10743 10746 10748 10751 10753 10756 10758 10760 10762 10763 10765 10766 10768 10770 10770 10771 10773 10775 10777 10778 10778 10779 10779 10780 10781 10782 10783 10783 10784 10785 10785 10785 10785 10785 10785 10786 10787 10787 10788 10789 10789 10790 10793 10792 10792 10791 10791 10791 10792 10794 10796 10795 10793 10792 10792 10791 10791 10791 10792 10791 10790 10790 10790 10790 10790 10790 10789 10789 10788
10692 10694 10697 10700 10702 10704 10707 10709 10711 10713 10716 10718 10720 10722 10725 10728 10730 10732 10735 10738 10740 10743 10746 10748 10751 10753 10756 10757 10758 10761 10762 10763 10765 10765 10766 10769 10771 10773 10773 10773 10774 10776 10776 10777 10778 10779 10780 10780 10781 10781 10781 10782 10781 10781 10782 10783 10783 10784 10785 10785 10787 10790 10789 10787 10787 10786 10788 10790 10790 10792 10792 10789 10789 10789 10788 10788 10788 10788 10788 10787 10786 10787 10787 10787 10786 10786 10785 10785
10685 10688 10691 10694 10696 10698 10701 10703 10705 10708 10710 10712 10715 10717 10719 10722 10724 10727 10729 10732 10735 10738 10740 10743 10746 10748 10751 10752 10753 10756 10757 10758 10760 10760 10762 10765 10767 10767 10768 10769 10770 10771 10771 10772 10774 10775 10776 10776 10776 10777 10776 10778 10777 10777 10777 10778 10778 10779 10782 10783 10784 10786 10785 10782 10782 10783 10785 10786 10787 10788 10789 10786 10785 10785 10785 10784 10784 10785 10785 10783 10783 10783 10783 10783 10783 10783 10782 10781
10679 10682 10685 10687 10690 10692 10695 10697 10700 10701 10704 10706 10708 10711 10714 10716 10719 10721 10724 10727 10729 10732 10735 10738 10741 10744 10747 10748 10748 10751 10752 10754 10754 10755 10758 10760 10762 10762 10762 10764 10765 10766 10767 10769 10769 10770 10771 10771 10772 10772 10772 10773 10774 10772 10771 10773 10772 10774 10779 10781 10780 10781 10780 10778 10777 10779 10780 10781 10783 10785 10786 10783 10781 10781 10781 10780 10780 10780 10781 10780 10780 10779 10779 10779 10779 10779 10778 10777
10672 10675 10678 10681 10684 10687 10689 10691 10693 10695 10698 10700 10702 10705 10708 10711 10713 10716 10719 10721 10724 10727 10730 10733 10735 10738 10741 10742 10743 10746 10747 10747 10748 10751 10755 10756 10756 10756 10757 10759 10760 10761 10763 10764 10764 10765 10766 10767 10767 10768 10768 10768 10768 10767 10767 10768 10767 10770 10776 10777 10776 10776 10776 10774 10774 10774 10775 10777 10779 10781 10782 10780 10778 10778 10776 10775 10776 10776 10776 10776 10775 10775 10775 10775 10775 10775 10774 10773
10665 10668 10672 10674 10678 10681 10683 10685 10687 10689 10692 10694 10697 10700 10702 10705 10707 10710 10713 10715 10719 10721 10724 10728 10730 10733 10736 10737 10738 10739 10739 10741 10744 10748 10750 10750 10750 10750 10752 10754 10754 10756 10757 10758 10759 10760 10761 10762 10763 10764 10764 10762 10761 10761 10763 10763 10763 10766 10771 10771 10771 10771 10771 10770 10770 10770 10771 10772 10774 10776 10777 10776 10776 10775 10772 10772 10772 10772 10772 10771 10770 10771 10771 10771 10771 10770 10770 10769
10658 10662 10665 10668 10671 10674 10676 10678 10680 10683 10686 10688 10691 10693 10696 10698 10701 10704 10707 10710 10713 10716 10719 10722 10724 10727 10730 10731 10731 10731 10733 10737 10740 10743 10744 10745 10745 10746 10747 10748 10749 10750 10752 10753 10754 10754 10756 10758 10758 10759 10758 10753 10753 10756 10759 10759 10759 10762 10765 10766 10766 10765 10764 10764 10765 10767 10768 10768 10768 10770 10771 10771 10772 10772 10770 10769 10769 10768 10767 10766 10766 10766 10767 10767 10767 10766 10765 10764
10650 10654 10658 10660 10663 10666 10668 10671 10673 10676 10680 10682 10684 10687 10689 10691 10695 10698 10701 10704 10708 10710 10712 10715 10716 10720 10724 10725 10725 10727 10729 10732 10735 10737 10738 10740 10741 10742 10742 10743 10744 10745 10746 10746 10748 10750 10751 10753 10754 10752 10748 10745 10748 10753 10755 10754 10755 10756 10758 10761 10761 10759 10758 10757 10759 10763 10765 10765 10764 10764 10766 10766 10766 10767 10767 10766 10765 10763 10762 10763 10761 10760 10762 10763 10763 10762 10761 10759
10642 10646 10650 10653 10656 10659 10661 10663 10665 10669 10673 10675 10677 10679 10682 10685 10688 10691 10694 10697 10700 10700 10703 10708 10711 10714 10719 10720 10721 10723 10723 10725 10728 10730 10733 10735 10735 10736 10737 10738 10739 10740 10740 10740 10743 10745 10746 10749 10749 10743 10738 10740 10745 10748 10749 10749 10750 10751 10753 10754 10754 10755 10754 10752 10755 10757 10758 10761 10761 10760 10762 10762 10761 10762 10763 10762 10760 10759 10758 10759 10757 10755 10757 10758 10758 10758 10757 10755
10634 10638 10642 10646 10649 10652 10654 10656 10659 10662 10666 10668 10670 10673 10676 10678 10680 10683 10686 10688 10691 10693 10698 10703 10705 10709 10714 10716 10716 10716 10717 10719 10721 10723 10726 10728 10729 10730 10732 10734 10734 10733 10733 10734 10738 10740 10740 10743 10741 10733 10733 10737 10741 10742 10743 10743 10744 10745 10747 10748 10748 10749 10748 10748 10750 10751 10752 10756 10756 10755 10757 10758 10756 10757 10757 10757 10756 10753 10753 10754 10753 10752 10752 10752 10753 10753 10752 10751
10625 10630 10634 10638 10641 10644 10647 10649 10652 10656 10660 10662 10664 10666 10668 10670 10673 10676 10677 10680 10684 10687 10691 10696 10700 10704 10707 10709 10710 10710 10713 10715 10714 10716 10719 10722 10724 10725 10726 10728 10728 10727 10726 10730 10733 10733 10735 10737 10732 10727 10730 10733 10734 10736 10737 10737 10738 10739 10740 10741 10743 10741 10742 10743 10743 10745 10748 10752 10752 10751 10753 10755 10752 10751 10751 10752 10751 10747 10746 10749 10749 10748 10748 10747 10748 10748 10748 10747
10616 10621 10625 10630 10632 10635 10638 10641 10645 10650 10652 10654 10656 10658 10660 10662 10665 10667 10669 10673 10676 10679 10685 10689 10693 10697 10700 10703 10705 10705 10708 10709 10709 10710 10712 10715 10717 10717 10720 10721 10720 10720 10722 10725 10726 10727 10731 10730 10724 10723 10726 10727 10727 10729 10730 10731 10732 10733 10733 10735 10736 10734 10735 10738 10738 10739 10743 10746 10747 10746 10750 10752 10748 10746 10744 10743 10744 10742 10741 10744 10744 10744 10743 10742 10742 10742 10742 10742
10609 10612 10615 10621 10623 10627 10631 10633 10639 10643 10644 10646 10648 10650 10652 10654 10657 10659 10661 10664 10669 10674 10678 10681 10685 10692 10696 10697 10698 10700 10702 10703 10704 10705 10705 10707 10707 10709 10714 10713 10713 10716 10716 10717 10717 10721 10727 10722 10718 10721 10722 10721 10721 10722 10723 10723 10725 10728 10728 10729 10729 10727 10729 10731 10733 10735 10737 10740 10741 10740 10746 10749 10743 10741 10739 10734 10735 10736 10737 10738 10738 10738 10738 10737 10737 10737 10737 10736
10603 10604 10607 10610 10614 10619 10622 10628 10634 10634 10634 10637 10639 10641 10643 10647 10649 10650 10651 10653 10661 10669 10670 10674 10680 10686 10690 10690 10693 10694 10694 10698 10700 10699 10699 10699 10698 10701 10705 10705 10707 10710 10708 10706 10709 10717 10723 10717 10713 10717 10715 10714 10714 10716 10717 10716 10717 10721 10723 10723 10722 10722 10723 10724 10726 10729 10732 10734 10733 10733 10741 10745 10740 10736 10732 10726 10726 10730 10732 10732 10731 10731 10732 10731 10732 10731 10731 10731
10594 10598 10601 10602 10606 10609 10614 10624 10625 10621 10625 10628 10630 10633 10636 10640 10640 10640 10642 10643 10654 10665 10664 10667 10673 10679 10683 10685 10688 10684 10684 10693 10694 10690 10692 10692 10691 10692 10694 10697 10700 10701 10700 10698 10703 10715 10719 10711 10707 10709 10710 10709 10709 10710 10710 10708 10709 10714 10716 10715 10715 10717 10719 10720 10720 10721 10725 10727 10728 10728 10732 10738 10739 10732 10725 10720 10722 10723 10722 10722 10723 10726 10727 10726 10726 10725 10724 10724
10586 10590 10593 10595 10599 10602 10608 10615 10612 10613 10619 10618 10620 10626 10628 10631 10630 10632 10633 10631 10648 10664 10660 10661 10667 10673 10677 10677 10679 10674 10677 10690 10687 10681 10686 10685 10684 10683 10685 10690 10692 10693 10691 10689 10698 10711 10712 10705 10701 10702 10704 10706 10706 10703 10701 10700 10703 10709 10710 10708 10709 10712 10713 10714 10714 10714 10717 10721 10725 10726 10723 10727 10734 10728 10718 10718 10720 10716 10712 10712 10716 10719 10721 10721 10720 10718 10717 10717
10577 10580 10584 10588 10591 10595 10601 10604 10605 10609 10610 10608 10614 10618 10619 10621 10621 10624 10622 10621 10645 10663 10657 10657 10661 10665 10669 10669 10670 10668 10673 10682 10677 10675 10678 10676 10676 10675 10677 10682 10683 10684 10682 10682 10695 10703 10702 10701 10698 10696 10697 10700 10701 10697 10694 10695 10698 10704 10705 10703 10703 10704 10705 10706 10707 10708 10710 10715 10722 10722 10713 10714 10726 10725 10716 10716 10713 10706 10704 10706 10710 10712 10712 10713 10712 10711 10710 10710
10567 10571 10575 10579 10582 10587 10593 10599 10603 10603 10600 10601 10606 10608 10611 10611 10611 10614 10608 10615 10644 10658 10653 10655 10655 10656 10660 10661 10663 10662 10666 10671 10670 10670 10668 10666 10669 10670 10671 10672 10672 10676 10677 10679 10688 10692 10694 10697 10694 10691 10691 10693 10693 10691 10691 10692 10694 10698 10698 10697 10696 10696 10698 10699 10702 10703 10704 10711 10716 10712 10702 10702 10717 10723 10717 10713 10707 10699 10697 10699 10702 10704 10704 10704 10703 10703 10703 10703
10558 10563 10566 10569 10575 10581 10586 10593 10597 10595 10593 10595 10596 10598 10600 10600 10603 10601 10597 10615 10641 10648 10648 10649 10646 10648 10650 10651 10654 10655 10658 10660 10660 10661 10659 10660 10662 10662 10664 10663 10663 10669 10672 10675 10681 10685 10688 10689 10688 10688 10687 10686 10686 10687 10687 10687 10689 10691 10690 10690 10690 10691 10692 10694 10697 10697 10698 10706 10707 10700 10694 10695 10708 10719 10713 10706 10700 10694 10693 10693 10694 10696 10696 10696 10695 10695 10695 10696
10550 10554 10557 10562 10569 10572 10577 10585 10588 10586 10585 10586 10588 10590 10589 10591 10593 10586 10594 10621 10632 10634 10641 10641 10639 10641 10641 10642 10644 10646 10649 10650 10650 10651 10653 10655 10655 10655 10657 10657 10658 10661 10665 10671 10675 10676 10679 10680 10682 10684 10683 10683 10682 10681 10681 10680 10682 10683 10683 10685 10684 10686 10688 10688 10690 10690 10691 10698 10696 10690 10688 10690 10702 10711 10705 10697 10694 10689 10686 10686 10686 10688 10688 10689 10688 10688 10688 10689
10541 10545 10548 10555 10559 10562 10570 10575 10575 10575 10575 10578 10580 10580 10578 10577 10576 10579 10600 10620 10619 10625 10635 10633 10634 10636 10633 10633 10634 10636 10639 10640 10642 10643 10645 10647 10648 10650 10652 10652 10652 10652 10659 10668 10667 10667 10670 10673 10676 10678 10680 10679 10675 10674 10674 10675 10676 10676 10678 10680 10678 10679 10682 10683 10684 10682 10684 10688 10686 10683 10683 10689 10699 10701 10692 10687 10687 10686 10681 10678 10679 10680 10681 10682 10681 10681 10681 10681
10533 10535 10539 10544 10548 10554 10560 10561 10561 10564 10568 10571 10570 10568 10566 10561 10564 10583 10604 10609 10609 10619 10626 10624 10628 10628 10624 10625 10627 10629 10629 10631 10634 10635 10636 10638 10640 10646 10648 10648 10648 10647 10652 10658 10657 10659 10663 10666 10670 10671 10672 10671 10669 10669 10669 10669 10669 10671 10673 10672 10671 10672 10674 10676 10676 10674 10677 10679 10678 10677 10679 10687 10695 10691 10682 10678 10678 10679 10677 10673 10673 10674 10674 10674 10674 10673 10673 10672
10523 10525 10529 10533 10537 10541 10546 10547 10550 10554 10558 10560 10558 10555 10552 10549 10562 10584 10597 10600 10602 10610 10615 10616 10617 10618 10618 10620 10621 10622 10622 10624 10627 10627 10628 10631 10635 10641 10643 10643 10644 10642 10644 10647 10650 10654 10656 10661 10664 10661 10661 10664 10665 10665 10664 10664 10664 10667 10668 10664 10666 10666 10663 10664 10666 10666 10670 10673 10672 10672 10675 10682 10686 10682 10677 10673 10669 10669 10669 10667 10667 10667 10667 10667 10666 10666 10666 10666
10513 10515 10519 10522 10525 10531 10536 10538 10542 10545 10547 10550 10547 10541 10539 10547 10564 10578 10586 10592 10594 10596 10602 10604 10603 10607 10611 10613 10615 10616 10616 10618 10620 10619 10621 10625 10629 10634 10636 10637 10638 10637 10638 10640 10643 10645 10646 10654 10657 10652 10653 10658 10659 10659 10659 10658 10659 10661 10662 10662 10663 10658 10651 10652 10658 10660 10662 10664 10668 10670 10672 10676 10675 10674 10673 10667 10662 10659 10659 10661 10660 10661 10661 10660 10659 10659 10659 10659
10503 10506 10508 10512 10518 10525 10528 10530 10534 10535 10535 10538 10533 10528 10537 10552 10565 10570 10575 10581 10580 10582 10588 10591 10592 10598 10603 10605 10609 10610 10610 10611 10611 10612 10614 10617 10622 10627 10630 10632 10631 10630 10633 10632 10632 10635 10637 10645 10649 10647 10649 10652 10651 10651 10652 10652 10653 10655 10658 10658 10655 10648 10645 10646 10650 10653 10652 10656 10664 10666 10668 10669 10668 10669 10666 10656 10652 10651 10651 10654 10655 10655 10654 10653 10652 10653 10652 10652
10495 10497 10498 10505 10514 10518 10519 10522 10524 10523 10522 10523 10520 10523 10538 10549 10553 10558 10564 10568 10567 10567 10574 10580 10585 10590 10595 10598 10602 10604 10604 10603 10603 10606 10609 10611 10616 10622 10624 10624 10622 10623 10626 10622 10620 10624 10629 10636 10642 10643 10644 10645 10643 10643 10645 10647 10648 10649 10650 10649 10643 10641 10644 10642 10642 10647 10646 10647 10656 10660 10661 10663 10664 10664 10657 10646 10645 10646 10645 10647 10648 10648 10647 10645 10645 10644 10644 10644
10487 10487 10490 10499 10506 10509 10512 10513 10514 10513 10510 10507 10508 10518 10532 10539 10543 10549 10553 10556 10557 10555 10561 10571 10576 10581 10586 10589 10594 10596 10596 10596 10599 10601 10604 10605 10611 10617 10616 10615 10615 10615 10615 10611 10610 10616 10620 10625 10633 10638 10638 10638 10636 10636 10640 10642 10641 10639 10638 10638 10636 10636 10639 10636 10634 10639 10639 10639 10647 10653 10654 10657 10657 10654 10647 10642 10642 10642 10640 10640 10639 10639 10638 10637 10637 10635 10636 10636
10475 10475 10482 10493 10497 10499 10503 10503 10503 10502 10495 10492 10501 10514 10524 10530 10534 10537 10540 10546 10547 10544 10551 10561 10564 10568 10574 10579 10584 10587 10587 10591 10594 10595 10598 10601 10607 10612 10610 10608 10608 10608 10605 10601 10602 10606 10607 10611 10624 10632 10631 10630 10631 10632 10635 10634 10630 10628 10629 10632 10632 10630 10630 10629 10628 10631 10631 10631 10638 10642 10646 10651 10649 10643 10641 10640 10638 10637 10635 10632 10629 10630 10630 10629 10628 10628 10627 10627
10463 10465 10475 10485 10484 10486 10492 10491 10489 10486 10479 10482 10496 10509 10516 10520 10523 10526 10530 10534 10535 10535 10544 10552 10552 10554 10562 10569 10573 10577 10580 10584 10587 10590 10593 10598 10603 10606 10605 10602 10601 10599 10595 10591 10593 10596 10597 10602 10614 10621 10621 10623 10626 10627 10625 10622 10621 10623 10625 10625 10625 10622 10620 10621 10623 10624 10622 10622 10625 10628 10636 10645 10642 10637 10637 10635 10632 10630 10628 10624 10621 10620 10621 10621 10621 10620 10620 10619
10451 10454 10466 10473 10469 10472 10478 10475 10473 10471 10469 10476 10491 10502 10507 10511 10515 10519 10521 10522 10524 10529 10535 10539 10541 10545 10552 10558 10561 10566 10571 10574 10578 10583 10588 10595 10600 10599 10596 10594 10592 10590 10586 10584 10588 10590 10589 10590 10598 10606 10613 10618 10618 10617 10616 10615 10616 10617 10617 10618 10618 10615 10612 10611 10615 10616 10611 10612 10616 10618 10630 10641 10636 10631 10631 10627 10625 10623 10620 10617 10613 10611 10612 10613 10613 10612 10612 10611
10438 10443 10457 10462 10457 10461 10465 10461 10463 10464 10463 10472 10486 10494 10499 10503 10507 10509 10510 10511 10513 10518 10523 10526 10532 10538 10541 10546 10551 10554 10558 10562 10568 10574 10581 10589 10591 10589 10588 10588 10586 10584 10580 10580 10582 10582 10578 10578 10584 10594 10603 10607 10606 10607 10608 10609 10609 10609 10611 10612 10609 10606 10603 10601 10604 10606 10604 10609 10612 10611 10622 10633 10628 10623 10623 10620 10617 10615 10612 10610 10605 10602 10603 10605 10605 10604 10603 10603
10427 10435 10447 10451 10449 10452 10452 10449 10451 10452 10454 10467 10479 10483 10487 10492 10496 10498 10500 10501 10502 10506 10512 10517 10524 10530 10532 10536 10540 10542 10545 10550 10557 10565 10573 10578 10581 10582 10582 10581 10581 10578 10575 10575 10575 10573 10569 10568 10573 10582 10589 10593 10596 10599 10602 10603 10602 10601 10601 10599 10596 10597 10597 10594 10595 10597 10600 10607 10606 10602 10614 10624 10619 10613 10612 10611 10611 10609 10607 10604 10599 10596 10595 10595 10596 10595 10594 10595
10420 10425 10433 10438 10440 10440 10436 10435 10440 10442 10448 10461 10470 10472 10476 10481 10486 10490 10493 10494 10494 10497 10502 10508 10515 10520 10523 10526 10528 10531 10534 10539 10546 10555 10562 10567 10572 10576 10574 10573 10573 10570 10568 10569 10567 10564 10562 10560 10562 10568 10575 10583 10588 10591 10593 10592 10588 10587 10589 10589 10590 10591 10588 10587 10588 10587 10594 10603 10598 10595 10608 10613 10606 10604 10604 10603 10604 10602 10599 10597 10594 10591 10589 10588 10587 10585 10585 10586
10410 10411 10417 10425 10428 10426 10424 10428 10433 10435 10440 10450 10457 10461 10465 10470 10476 10482 10484 10483 10485 10487 10491 10497 10503 10508 10512 10515 10518 10521 10525 10531 10538 10543 10549 10556 10562 10565 10564 10564 10565 10562 10560 10560 10559 10557 10554 10552 10554 10557 10564 10575 10580 10580 10580 10577 10574 10578 10583 10584 10584 10582 10578 10579 10579 10579 10589 10597 10590 10590 10599 10598 10594 10597 10597 10595 10594 10593 10591 10589 10588 10586 10584 10583 10581 10578 10577 10576
10395 10398 10405 10413 10415 10412 10414 10420 10422 10423 10428 10435 10442 10449 10454 10460 10467 10471 10471 10473 10477 10480 10483 10487 10492 10497 10501 10504 10507 10512 10518 10524 10527 10531 10539 10546 10549 10551 10551 10552 10555 10553 10550 10550 10550 10548 10546 10545 10547 10550 10555 10564 10566 10565 10566 10566 10568 10573 10575 10574 10573 10573 10571 10569 10571 10578 10582 10581 10581 10587 10587 10585 10586 10587 10586 10586 10586 10584 10582 10580 10578 10578 10576 10576 10574 10572 10571 10569
10380 10387 10396 10402 10402 10398 10400 10407 10410 10415 10422 10425 10430 10439 10446 10451 10456 10458 10459 10465 10470 10472 10474 10476 10479 10484 10490 10494 10498 10503 10508 10511 10514 10521 10530 10534 10536 10538 10538 10540 10543 10543 10540 10539 10538 10538 10537 10538 10542 10543 10546 10551 10552 10551 10553 10558 10562 10564 10564 10566 10566 10564 10562 10560 10566 10574 10568 10563 10575 10582 10573 10573 10579 10577 10575 10577 10575 10572 10572 10570 10568 10568 10567 10566 10566 10564 10564 10563
10367 10378 10387 10390 10388 10386 10389 10397 10404 10410 10416 10418 10421 10428 10434 10438 10442 10446 10453 10459 10459 10459 10461 10465 10471 10477 10481 10484 10487 10491 10495 10498 10504 10514 10521 10521 10522 10524 10524 10527 10531 10530 10529 10529 10530 10529 10528 10531 10535 10533 10535 10541 10542 10540 10542 10546 10552 10555 10557 10559 10558 10555 10555 10555 10559 10563 10555 10554 10568 10568 10560 10566 10570 10564 10564 10565 10563 10562 10562 10560 10559 10558 10557 10557 10556 10556 10556 10556
10355 10366 10374 10375 10377 10380 10382 10387 10392 10397 10402 10406 10410 10415 10420 10426 10432 10437 10445 10446 10445 10447 10451 10456 10465 10470 10470 10470 10472 10476 10482 10488 10496 10505 10507 10505 10507 10509 10511 10516 10520 10519 10518 10519 10521 10520 10519 10524 10527 10523 10525 10532 10533 10533 10535 10535 10539 10544 10547 10549 10550 10549 10549 10548 10551 10553 10546 10548 10557 10553 10551 10559 10559 10554 10554 10552 10551 10552 10551 10550 10550 10549 10548 10548 10547 10547 10547 10547
10344 10353 10360 10362 10366 10372 10375 10374 10376 10383 10390 10393 10397 10403 10410 10417 10423 10428 10430 10431 10435 10441 10442 10447 10457 10459 10456 10456 10456 10461 10471 10479 10486 10491 10489 10487 10492 10497 10501 10505 10508 10508 10507 10508 10510 10511 10512 10516 10519 10514 10515 10524 10528 10526 10525 10525 10527 10531 10535 10540 10544 10544 10541 10540 10544 10543 10535 10539 10545 10539 10541 10551 10548 10543 10542 10539 10539 10541 10540 10540 10540 10539 10539 10538 10536 10536 10537 10538
10331 10339 10346 10350 10353 10359 10363 10363 10363 10370 10377 10379 10385 10394 10400 10407 10416 10419 10417 10417 10424 10429 10431 10439 10446 10444 10441 10440 10441 10451 10465 10469 10470 10473 10471 10472 10478 10484 10489 10493 10496 10497 10498 10499 10500 10501 10503 10507 10510 10507 10506 10516 10521 10514 10512 10515 10515 10516 10528 10538 10538 10534 10530 10530 10533 10531 10526 10530 10532 10526 10532 10542 10536 10528 10529 10529 10529 10530 10529 10530 10528 10527 10528 10527 10526 10527 10527 10528
10318 10325 10331 10336 10340 10345 10349 10352 10353 10355 10362 10370 10377 10384 10389 10396 10404 10407 10404 10405 10412 10418 10422 10431 10435 10430 10426 10428 10435 10447 10455 10451 10451 10456 10456 10458 10465 10471 10475 10481 10485 10486 10488 10490 10489 10491 10494 10497 10501 10499 10498 10506 10511 10504 10502 10503 10498 10506 10529 10537 10527 10519 10519 10520 10522 10522 10519 10519 10518 10517 10523 10527 10521 10518 10519 10518 10518 10519 10519 10518 10516 10516 10516 10515 10515 10516 10516 10516